Location: Newark
(49.0000°N, 111.9667°W)
Time: 18:08:25
(UTC+00:00)

ISS - Visible Passes

Search period start: 23 August 2019 00:00
Search period end: 02 September 2019 00:00
Orbit: 410 x 420 km, 51.6° (Epoch: 23 August)

Date Brightness Start Highest point End Pass type
(mag) Time Alt. Az. Time Alt. Az. Time Alt. Az.
28 Aug -1.1 11:21:23 10° SSE 11:22:58 13° SE 11:24:34 10° ESE visible
30 Aug -2.2 11:19:40 16° SSW 11:21:40 27° SE 11:24:34 10° E visible
31 Aug -1.7 10:32:52 18° SE 10:33:00 18° SE 10:35:22 10° E visible
31 Aug -3.7 12:05:58 10° WSW 12:09:19 80° SSE 12:12:41 10° ENE visible
01 Sep -3.4 11:18:53 26° SW 11:20:30 56° SSE 11:23:47 10° ENE visible
